Lexington Weather

Lexington, Massachusetts, USA

56°F
10/22/2020 7:56pm 
  • Lexington Conditions: Mostly cloudy
  • Temperature: 55.8°F / 13.2°CColder 0.3°F than last hour.
  • Dew Point: 54.3°FDecreased 0.2°Fsince last hour.
  • Relative Humidity: 95%Increased 1.0% since last hour.
  • Wind: Wind from NW NW Calm, 10-min avg: 1 mph, gust: 3 mph
  • Barometer: 30.22 in Steady
  • Visibility: 7 miles
  • Rain Today: 0.00 in
  •   
Southeast Middlesex County - Special Weather Statement
 - SEE ALL NEARBY ALERTS -

Regional Weather Roundup
for Boston / Norton, MA

        
000
ASUS41 KBOX 170105
RWRBOX

REGIONAL WEATHER ROUNDUP
NATIONAL WEATHER SERVICE BOSTON/NORTON MA
900 PM EDT FRI OCT 16 2020

NOTE:  "FAIR" INDICATES FEW OR NO CLOUDS BELOW 12,000 FEET WITH NO 
SIGNIFICANT WEATHER AND/OR OBSTRUCTIONS TO VISIBILITY.

MAZALL-170200-
EASTERN MASSACHUSETTS
  
CITY           SKY/WX    TMP DP  RH WIND       PRES   REMARKS
BOSTON         CLOUDY    53  51  93 NW6       30.10F                  
BEVERLY        MOCLDY    53  51  93 N5        30.08F                  
LAWRENCE       CLOUDY    53  51  93 NW3       30.11F                  
BEDFORD        CLOUDY    52  51  97 NW6       30.09F                  
BLUE HILL        N/A     50  50 100 N9        30.07F                  
NORWOOD        CLOUDY    54  51  90 VRB3      30.09S                  
MARSHFIELD     CLOUDY    57  55  94 VRB3G12   30.08F                  
PLYMOUTH       CLOUDY    55  52  89 N7        30.08F                  
TAUNTON        CLOUDY    55  52  89 N3        30.08F                  
NEW BEDFORD    CLOUDY    56  52  86 NE7       30.06F                  
$$

MAZALL-170200-
CAPE COD AND THE ISLANDS
  
CITY           SKY/WX    TMP DP  RH WIND       PRES   REMARKS
FALMOUTH       CLOUDY    57  52  82 N14       30.09S                  
HYANNIS        CLOUDY    57  53  86 N15       30.07F                  
CHATHAM        CLOUDY    59  54  83 VRB7      30.09F                  
PROVINCETOWN   CLOUDY    56  54  93 N8        30.10F                  
NANTUCKET      PTCLDY    63  61  93 W6        30.06R                  
MARTHAS VNYRD  CLOUDY    58  56  93 NE13      30.06F                  
$$
 
MAZALL-170200-
CENTRAL AND WESTERN MASSACHUSETTS
  
CITY           SKY/WX    TMP DP  RH WIND       PRES   REMARKS
WORCESTER      LGT RAIN  49  46  90 N7        30.08F                  
FITCHBURG      LGT RAIN  51  49  92 CALM      30.11F                  
ORANGE         LGT RAIN  49  48  97 W5        30.13S                  
SPRINGFIELD    LGT RAIN  50  49  97 N6        30.10S                  
WESTFIELD      LGT RAIN  50  50 100 N7        30.11S                  
NORTH ADAMS    LGT RAIN  47  46  97 W3        30.15R                  
PITTSFIELD     LGT RAIN  45  41  86 NW7       30.12F                  
$$
 
RIZALL-170200-
RHODE ISLAND
  
CITY           SKY/WX    TMP DP  RH WIND       PRES   REMARKS
PROVIDENCE     CLOUDY    53  51  93 N10       30.08F                  
NEWPORT        CLOUDY    53  51  93 N12       30.07S                  
BLOCK ISLAND   CLOUDY    55  51  86 NE15G23   30.06F                  
SMITHFIELD     CLOUDY    51  51 100 NE9         N/A                   
WESTERLY       CLOUDY    55  49  80 N15       30.06F                  
$$
 
CTZALL-170200-
CONNECTICUT
  
CITY           SKY/WX    TMP DP  RH WIND       PRES   REMARKS
BRADLEY INTL   CLOUDY    51  49  92 NW5       30.11F                  
HARTFORD       CLOUDY    52  49  89 N8        30.11S                  
BRIDGEPORT     LGT RAIN  51  48  89 NW7       30.10R                  
DANBURY        LGT RAIN  48  45  89 VRB6      30.14R                  
GROTON         LGT RAIN  54  51  90 N10       30.06F                  
NEW HAVEN      LGT RAIN  53  51  93 N6        30.09S                  
CHESTER        NOT AVBL                                               
MERIDEN        LGT RAIN  51  48  89 N6        30.10S                  
WILLIMANTIC    LGT RAIN  52  50  93 NW6       30.09S FOG              
OXFORD         LGT RAIN  48  47  96 N12       30.10S                  
$$

MEZ002-015-021-024-NHZ003-005-008-011-012-014-VTZ005-008-170200-
NORTHERN NEW ENGLAND
  
CITY           SKY/WX    TMP DP  RH WIND       PRES   REMARKS
PORTLAND ME    CLOUDY    54  54 100 N5        30.09F                  
BANGOR ME      LGT RAIN  55  53  93 W6        30.12R FOG              
CONCORD NH     LGT RAIN  50  48  93 W8        30.11F                  
MANCHESTER NH  LGT RAIN  53  49  86 NW6       30.09F                  
NASHUA NH      LGT RAIN  51  51 100 NW6       30.11F FOG              
PORTSMOUTH NH  MOCLDY    53  51  95 NW3       30.07F                  
JAFFREY NH     CLOUDY    48  46  93 CALM      30.11S                  
KEENE NH       LGT RAIN  49  48  97 N6        30.13S                  
BURLINGTON VT  LGT RAIN  47  44  90 CALM      30.17S                  
MT. WASHINGTON SNOW      34  34 100 W33         N/A  VSB 1/16WCI  19  
$$

NYZ052-076-170200-
EASTERN NEW YORK
  
CITY           SKY/WX    TMP DP  RH WIND       PRES   REMARKS
ALBANY         CLOUDY    45  44  97 CALM      30.17S                  
NEW YORK CITY  LGT RAIN  54  48  80 N10       30.12R                  
$$
 
ANZALL-170200-
MARINE OBSERVATIONS
  
STATION/POSITION TIME  TEMP    WIND        PRES    VSBY  WAVE
                       AIR SEA DIR/SP/G                  HT/PER
                 (UTC) (F)     (DEG/KT/KT) (MB)    (MI)  (FT/S)
BOSTON BUOY      0050   55 57  360/  8/ 10 1017.7F         2/ 8
BUZZARDS BAY     0000          360/ 18/ 21 1019.1R
NANTUCKET SOUND  0050      62  360/ 17/ 21   N/A           2/ 3
MASS BAY-STELLWA 0004   56 58  330/ 10/ 14 1018.7S  1 7/8  3/ 6
ISLE OF SHOALS   0000   54     330/ 12/ 13 1018.5F
S OF BLOCK IS    0026      64                N/A           4/ 4
$$

......................KEY.........................
  SKY/WX - SKY CONDITION/PRESENT WEATHER
  TMP    - TEMPERATURE IN FAHRENHEIT
  DWPT   - DEWPOINT IN FAHRENHEIT
  RH     - RELATIVE HUMIDITY IN PERCENT
  WIND   - DIRECTION AND SPEED IN MPH
  PRES   - MEAN SEA LEVEL PRESSURE IN INCHES OF HG
  WCI    - WIND CHILL INDEX
  VSB    - VISIBILITY IN MILES
  HX     - HEAT INDEX
  TC     - TEMPERATURE IN CELSIUS
  VRB    - VARIABLE WIND DIRECTION
  N/A    - NOT AVAILABLE
  
      

Other recent Regional Weather Roundups

Thu Oct 22, 7:05pm

Thu Oct 22, 6:04pm

Thu Oct 22, 5:04pm

Thu Oct 22, 4:05pm

Thu Oct 22, 3:04pm

Thu Oct 22, 2:05pm

Thu Oct 22, 1:04pm

Thu Oct 22, 12:04pm

Thu Oct 22, 11:04am

Thu Oct 22, 10:05am

Thu Oct 22, 9:04am

Thu Oct 22, 8:05am

Thu Oct 22, 7:04am

Thu Oct 22, 6:04am

Thu Oct 22, 5:04am

Thu Oct 22, 4:04am

Thu Oct 22, 3:04am

Thu Oct 22, 2:04am

Thu Oct 22, 1:04am

Thu Oct 22, 12:04am

Wed Oct 21, 11:05pm

Wed Oct 21, 10:04pm

Wed Oct 21, 9:04pm

Wed Oct 21, 8:04pm

Wed Oct 21, 7:04pm

Wed Oct 21, 6:04pm

Wed Oct 21, 5:05pm

Wed Oct 21, 4:04pm

Wed Oct 21, 3:04pm

Wed Oct 21, 2:05pm

Wed Oct 21, 1:04pm

Wed Oct 21, 12:04pm

Wed Oct 21, 11:04am

Wed Oct 21, 10:04am

Wed Oct 21, 9:04am

Wed Oct 21, 8:04am

Wed Oct 21, 7:04am

Wed Oct 21, 6:04am

Wed Oct 21, 5:04am

Wed Oct 21, 4:04am

Wed Oct 21, 3:04am

Wed Oct 21, 2:04am

Wed Oct 21, 1:04am

Wed Oct 21, 12:04am

Tue Oct 20, 11:05pm

Tue Oct 20, 10:04pm

Tue Oct 20, 9:04pm

Tue Oct 20, 8:05pm

Tue Oct 20, 7:04pm

Tue Oct 20, 6:04pm

Tue Oct 20, 5:05pm

Tue Oct 20, 4:04pm

Tue Oct 20, 3:05pm

Tue Oct 20, 2:07pm

Tue Oct 20, 1:04pm

Tue Oct 20, 12:04pm

Tue Oct 20, 11:04am

Tue Oct 20, 10:05am

Tue Oct 20, 9:04am

Tue Oct 20, 8:04am

Tue Oct 20, 7:04am

Tue Oct 20, 6:04am

Tue Oct 20, 5:04am

Tue Oct 20, 4:04am

Tue Oct 20, 3:04am

Tue Oct 20, 2:04am

Tue Oct 20, 1:04am

Tue Oct 20, 12:04am

Mon Oct 19, 11:04pm

Mon Oct 19, 10:04pm

Mon Oct 19, 9:04pm

Mon Oct 19, 8:04pm

Mon Oct 19, 7:04pm

Mon Oct 19, 6:04pm

Mon Oct 19, 5:04pm

Mon Oct 19, 4:04pm

Mon Oct 19, 3:04pm

Mon Oct 19, 2:04pm

Mon Oct 19, 1:05pm

Mon Oct 19, 12:04pm

Mon Oct 19, 11:04am

Mon Oct 19, 10:04am

Mon Oct 19, 9:04am

Mon Oct 19, 8:04am

Mon Oct 19, 7:04am

Mon Oct 19, 6:04am

Mon Oct 19, 5:04am

Mon Oct 19, 4:04am

Mon Oct 19, 3:04am

Mon Oct 19, 2:04am

Mon Oct 19, 1:04am

Mon Oct 19, 12:05am

Sun Oct 18, 11:04pm

Sun Oct 18, 10:04pm

Sun Oct 18, 9:04pm

Sun Oct 18, 8:04pm

Sun Oct 18, 7:05pm

Sun Oct 18, 6:04pm

Sun Oct 18, 5:05pm

Sun Oct 18, 4:05pm

Sun Oct 18, 3:04pm

Sun Oct 18, 2:05pm

Sun Oct 18, 1:04pm

Sun Oct 18, 12:04pm

Sun Oct 18, 11:04am

Sun Oct 18, 10:04am

Sun Oct 18, 9:04am

Sun Oct 18, 8:04am

Sun Oct 18, 7:04am

Sun Oct 18, 6:04am

Sun Oct 18, 5:04am

Sun Oct 18, 4:04am

Sun Oct 18, 3:04am

Sun Oct 18, 2:04am

Sun Oct 18, 1:04am

Sun Oct 18, 12:04am

Sat Oct 17, 11:05pm

Sat Oct 17, 10:04pm

Sat Oct 17, 9:04pm

Sat Oct 17, 8:04pm

Sat Oct 17, 7:04pm

Sat Oct 17, 6:04pm

Sat Oct 17, 5:05pm

Sat Oct 17, 4:04pm

Sat Oct 17, 3:04pm

Sat Oct 17, 2:05pm

Sat Oct 17, 1:05pm

Sat Oct 17, 12:04pm

Sat Oct 17, 11:05am

Sat Oct 17, 10:04am

Sat Oct 17, 9:04am

Sat Oct 17, 8:04am

Sat Oct 17, 7:04am

Sat Oct 17, 6:04am

Sat Oct 17, 5:04am

Sat Oct 17, 4:04am

Sat Oct 17, 3:04am

Sat Oct 17, 2:04am

Sat Oct 17, 1:05am

Sat Oct 17, 12:04am

Fri Oct 16, 11:05pm

Fri Oct 16, 10:04pm

Fri Oct 16, 8:04pm

Fri Oct 16, 7:05pm

Fri Oct 16, 6:04pm

Fri Oct 16, 5:04pm

Fri Oct 16, 4:05pm

Fri Oct 16, 3:04pm

Fri Oct 16, 2:04pm

Fri Oct 16, 1:04pm

Fri Oct 16, 12:04pm

Fri Oct 16, 11:05am

Fri Oct 16, 10:04am

Fri Oct 16, 9:04am

Fri Oct 16, 8:04am

Fri Oct 16, 7:04am

Fri Oct 16, 6:04am

Fri Oct 16, 5:04am

Fri Oct 16, 4:04am

Fri Oct 16, 3:04am

Fri Oct 16, 2:04am

Fri Oct 16, 1:04am

Fri Oct 16, 12:04am

Thu Oct 15, 11:04pm

Thu Oct 15, 10:04pm

Thu Oct 15, 9:05pm

Thu Oct 15, 8:04pm

Meta data:

ID: 39803d48-75ee-454e-9d6d-0b00d28aabbf
Link: https://api.weather.gov/products/39803d48-75ee-454e-9d6d-0b00d28aabbf